Theta_e
308 304 301 304 305 304 303 300 299 301 305 302 302 302 304 307 306 306 306 306 307 309 313 317 320 322 323 325 325 324 325 324 324 326 325 325 325 326 330 327 326 328 331 328
303 301 306 306 304 302 301 299 299 302 303 302 302 301 305 306 306 307 308 307 307 309 311 315 319 321 323 322 322 325 323 323 321 324 327 322 325 328 327 325 326 329 329 329
303 305 305 304 302 301 301 300 300 300 301 302 300 299 303 306 305 306 308 309 309 309 310 314 317 320 322 321 319 323 324 323 323 327 327 326 330 327 326 325 327 327 330 328
305 306 304 303 302 303 299 304 302 301 299 295 300 293 300 304 305 306 307 307 307 309 311 314 316 318 321 321 321 320 323 325 324 329 329 327 327 323 325 327 329 328 330 329
303 302 302 301 303 304 302 304 302 301 299 297 297 294 298 302 303 307 310 308 308 309 311 313 315 316 321 322 323 325 324 325 325 329 329 326 326 328 329 329 329 331 333 329
306 307 307 306 306 305 306 302 300 299 298 292 297 295 297 300 304 307 309 308 307 308 310 314 316 317 319 323 323 324 325 323 324 327 328 326 324 327 323 327 326 327 328 333
302 304 306 308 303 303 304 301 293 291 292 291 296 294 298 305 308 307 308 309 308 308 310 313 314 314 317 321 322 323 324 322 323 325 328 325 324 326 325 322 323 325 327 328
297 295 302 305 305 302 301 302 294 287 288 292 295 293 298 307 310 311 310 310 308 308 310 313 314 315 316 319 323 322 322 322 321 323 326 325 325 322 324 326 324 326 327 327
297 297 304 305 306 306 299 297 303 297 294 292 295 299 305 309 310 309 307 306 306 308 310 313 315 316 317 319 323 324 324 322 321 322 325 325 324 324 323 327 326 330 328 329
301 296 302 304 306 304 303 304 295 296 288 287 292 294 297 304 307 310 307 306 307 308 310 312 315 316 318 320 322 325 326 323 321 322 323 323 322 323 324 326 326 328 327 325
305 302 298 302 301 300 299 298 299 298 296 291 289 294 306 307 311 313 312 309 307 308 309 312 314 316 318 319 319 322 325 322 322 322 322 324 322 322 324 324 325 324 326 325
304 303 297 298 303 307 305 301 302 295 294 295 295 295 308 312 314 316 313 309 309 310 310 312 314 316 316 317 319 321 325 322 322 321 321 322 322 322 323 324 325 327 327 328
304 302 295 295 302 305 300 302 303 303 302 296 293 296 309 312 314 314 312 309 308 309 310 311 313 314 315 316 317 320 323 322 319 319 320 321 321 321 323 323 323 326 327 327
307 303 299 293 296 302 300 301 302 302 296 296 297 299 305 310 312 312 313 311 309 309 309 311 312 314 316 316 317 320 322 322 319 319 320 320 321 321 322 323 324 325 326 326
306 298 300 301 301 302 301 301 303 300 301 297 300 301 305 310 312 315 315 311 308 308 309 311 312 313 315 316 318 320 322 321 321 320 320 321 320 320 320 322 323 323 325 325
302 299 300 297 299 300 298 300 302 303 302 302 302 302 311 313 315 314 312 309 308 309 310 311 312 314 315 316 317 319 322 322 322 321 320 321 318 318 320 320 321 322 323 323
300 300 297 293 298 298 294 298 300 302 304 303 299 305 311 311 313 315 314 311 311 312 311 312 313 314 315 317 319 319 321 322 321 321 321 320 318 317 319 319 320 320 323 324
300 301 299 295 297 289 300 306 304 302 304 307 307 308 312 312 316 318 319 314 315 314 313 313 314 316 317 318 319 321 321 320 320 321 320 320 317 317 319 318 320 320 320 323
299 299 299 296 294 297 300 304 302 301 302 309 308 309 312 313 315 314 318 319 319 316 317 317 316 317 318 318 319 320 319 319 320 320 320 320 317 317 318 318 318 319 319 319
300 301 297 297 293 290 301 308 310 309 299 311 311 312 311 313 307 311 320 320 320 319 318 317 317 317 318 319 320 319 318 319 319 320 320 321 318 317 318 320 318 318 319 319
294 296 293 293 294 298 306 310 311 298 301 315 314 315 313 311 315 320 321 321 323 322 318 319 317 317 319 321 321 319 319 318 320 320 321 322 320 318 320 321 320 318 317 317
293 292 292 295 292 289 308 309 304 313 315 315 316 316 315 318 319 318 319 320 320 320 318 317 315 316 320 320 321 319 319 321 321 321 321 322 322 317 318 320 319 319 318 317
294 297 295 298 297 310 312 314 318 319 317 314 317 318 317 317 317 317 318 319 320 321 320 317 316 317 318 320 321 320 321 320 320 320 321 323 323 321 318 319 319 317 318 316
297 306 301 302 304 307 311 315 316 315 315 316 318 318 317 317 317 317 318 318 319 321 319 317 316 316 316 319 320 322 321 320 319 320 322 323 323 322 320 317 318 317 316 316
296 302 303 304 307 307 310 314 315 314 315 316 317 318 318 318 317 318 318 319 319 320 320 317 316 317 317 318 319 320 321 321 321 322 322 323 322 322 322 320 318 316 322 316
302 299 299 300 308 310 312 314 316 314 314 316 317 317 319 319 318 320 320 321 321 320 321 320 317 317 318 318 318 319 320 321 321 321 321 321 321 322 321 320 319 303 301 299
Wind_Speed
9 10 16 16 10 6 7 4 4 5 6 4 9 13 19 11 11 13 13 15 14 14 10 8 8 6 5 6 6 5 5 6 6 5 4 3 5 4 3 4 4 5 2 4
8 18 12 11 10 8 6 4 5 6 3 5 9 14 16 11 8 13 16 16 17 14 11 10 9 7 5 5 5 5 5 5 5 4 3 2 2 2 3 3 4 5 5 5
19 9 13 11 10 9 6 6 4 8 1 5 6 8 7 5 5 6 10 15 16 17 15 12 11 8 6 4 3 4 4 5 5 7 4 2 2 3 3 4 4 6 6 3
12 10 15 11 13 12 10 11 6 5 4 8 2 6 7 7 12 9 10 14 16 17 14 12 12 9 7 4 0 1 3 5 4 5 5 5 5 4 3 3 4 4 8 6
15 15 15 12 12 12 9 6 5 3 6 3 4 5 4 4 9 14 11 14 16 18 17 15 13 10 8 5 2 1 3 4 3 4 5 4 5 4 3 3 5 7 7 6
17 4 11 14 7 12 5 4 3 2 3 4 6 6 3 5 7 6 4 8 16 18 17 14 13 9 7 6 4 2 1 3 2 3 5 7 7 5 4 5 4 3 2 5
10 14 6 7 9 4 8 7 5 4 5 6 2 5 8 12 12 9 14 6 14 17 17 15 15 11 9 8 6 3 2 2 3 4 5 6 5 5 6 4 3 4 4 4
17 15 16 9 18 13 13 13 8 5 5 7 3 5 6 3 3 5 7 3 12 17 16 15 16 13 11 9 8 5 4 1 1 3 5 5 6 5 4 4 4 3 3 4
19 19 7 14 9 17 7 8 6 8 2 4 3 5 11 2 6 1 3 6 12 17 17 16 15 12 11 9 9 7 5 3 0 2 2 4 5 6 6 6 5 4 4 3
7 10 13 11 10 7 13 13 6 3 5 7 4 3 7 8 7 2 4 7 12 15 15 15 14 13 10 9 6 7 6 4 3 1 2 3 4 4 6 4 5 5 4 1
13 8 4 10 16 18 8 9 2 3 3 8 8 5 5 5 4 5 6 9 15 17 17 14 13 13 11 8 7 7 7 7 5 3 2 2 4 4 5 6 5 2 3 4
18 10 15 10 3 14 22 18 15 11 9 4 5 9 5 8 5 5 1 7 11 17 16 14 14 13 11 10 8 8 8 7 6 5 4 2 4 4 5 6 6 5 6 6
13 11 13 12 5 3 13 12 13 6 4 13 12 7 5 6 5 4 8 11 13 16 16 14 13 14 13 11 9 9 9 8 7 6 6 4 4 4 6 6 6 6 6 8
19 10 24 19 11 14 10 12 14 16 11 10 12 14 6 10 7 7 10 11 13 16 17 15 14 14 14 12 10 10 9 9 9 7 6 5 5 4 4 5 6 6 6 8
15 18 16 21 17 17 19 19 18 17 16 14 13 12 13 14 11 8 8 11 13 16 18 18 16 15 14 13 11 10 10 11 10 9 7 6 5 5 5 6 6 6 6 7
2 7 14 18 15 21 23 21 19 21 20 18 18 17 11 8 9 9 11 13 13 17 20 19 18 17 16 15 14 12 11 12 11 11 9 8 6 7 6 6 6 6 7 7
5 8 8 14 11 16 21 25 23 21 17 16 17 18 9 10 13 13 13 15 17 17 19 21 21 19 17 16 14 14 12 12 12 11 10 10 9 8 8 8 8 8 7 7
5 5 3 6 10 15 2 12 24 21 19 20 17 17 15 17 16 10 12 16 15 15 16 18 17 17 18 16 15 13 12 13 13 12 11 10 10 10 9 9 9 7 6 7
3 3 5 6 10 5 6 4 13 15 19 18 21 21 15 8 7 10 13 14 15 19 18 17 18 16 16 18 16 14 14 13 13 13 13 13 12 11 10 10 9 8 7 7
8 1 4 4 8 16 8 8 8 13 11 18 21 20 16 13 10 13 15 15 13 14 15 16 17 17 16 17 17 16 15 15 15 15 15 14 13 13 12 11 10 8 7 7
7 5 11 8 6 5 6 9 15 15 5 10 19 19 15 15 16 4 11 12 12 13 16 14 17 19 19 17 18 18 17 18 17 15 15 15 14 13 12 11 9 9 8 7
11 9 7 7 9 15 6 11 14 6 3 8 14 15 19 20 9 8 8 9 8 11 15 18 17 17 16 18 18 19 18 18 16 15 15 16 15 12 10 12 10 10 9 9
11 11 12 9 7 3 16 13 16 7 6 7 13 13 17 14 14 11 10 8 8 10 11 15 16 16 16 18 19 20 20 18 16 16 16 16 15 13 13 13 12 10 10 9
19 7 10 12 17 11 13 14 9 7 5 3 7 12 14 13 9 11 6 7 9 6 9 12 15 16 18 19 20 21 19 20 18 17 16 14 14 14 13 10 10 10 10 9
14 12 15 11 8 4 8 14 8 8 5 7 5 7 10 10 8 6 6 8 7 6 9 13 14 14 17 19 20 19 19 20 17 16 15 14 13 14 13 12 11 11 10 10
5 14 10 12 7 6 8 16 17 15 14 12 12 9 6 10 9 8 6 5 7 9 9 12 14 14 16 17 18 19 21 20 19 16 14 13 13 12 12 11 10 9 7 11
Wind_Direction
179 191 206 201 207 213 224 193 226 240 255 256 262 273 276 277 231 218 203 198 198 204 197 191 197 216 248 273 289 317 327 360 360 352 351 331 360 6 21 18 343 310 227 140
157 215 199 178 193 184 180 188 235 269 271 224 278 272 276 266 248 225 212 201 199 193 193 189 193 206 230 286 299 298 324 346 353 336 327 300 318 25 14 349 333 14 154 130
201 192 159 171 171 182 187 209 214 286 318 237 279 271 280 290 258 240 226 215 200 193 188 186 186 200 215 264 316 318 326 339 1 348 357 313 147 79 43 356 27 42 84 106
207 156 167 178 193 197 217 217 239 245 264 292 233 296 291 294 291 261 231 206 198 191 193 182 182 190 205 228 245 329 14 353 34 7 30 34 56 65 48 30 48 48 75 71
188 170 179 186 202 184 241 163 203 228 250 293 204 243 269 291 278 270 248 207 199 190 184 182 182 186 195 203 190 283 15 9 54 37 4 352 44 60 61 60 75 71 56 75
211 172 189 204 187 190 155 131 93 97 176 244 241 229 259 245 246 267 258 200 194 185 183 180 179 172 189 200 180 165 33 22 21 31 20 20 24 49 73 70 57 53 49 46
183 199 185 192 204 134 175 188 236 231 215 269 101 202 263 269 266 278 296 259 192 182 178 177 173 178 184 197 180 171 110 38 358 329 344 43 32 50 61 46 26 27 350 56
196 206 196 178 212 201 195 205 232 236 240 294 137 232 258 277 344 306 317 259 174 178 179 180 176 178 184 192 186 179 142 110 31 25 16 33 34 41 60 61 46 60 57 42
196 216 173 182 187 196 169 199 233 247 56 259 252 245 276 266 251 289 94 161 170 180 180 180 176 180 184 189 192 190 169 154 127 32 3 41 39 36 61 61 71 65 45 58
168 196 206 185 196 194 204 159 173 189 223 250 207 264 267 292 314 238 199 189 174 178 185 182 178 181 189 191 175 191 187 174 163 123 28 42 53 39 68 116 84 86 81 10
173 188 145 175 199 203 176 200 182 237 239 257 272 261 230 227 290 309 230 199 175 179 188 186 181 183 191 187 181 184 183 169 172 177 121 75 79 72 59 79 84 71 98 92
188 198 207 193 171 229 205 206 206 224 205 233 278 265 192 216 256 293 181 185 192 178 185 188 185 183 187 190 187 190 182 177 173 171 154 130 97 93 73 68 70 65 52 81
166 201 197 217 198 166 211 197 206 219 229 222 242 250 164 238 257 196 163 171 185 175 182 188 188 189 192 189 193 192 186 173 163 163 158 148 115 101 101 78 75 85 74 68
175 185 208 212 232 195 199 189 203 201 218 228 237 253 213 222 223 197 166 171 182 180 183 186 191 194 193 188 189 189 186 172 164 160 161 155 146 121 116 109 94 98 97 94
185 217 217 224 202 194 211 212 205 211 223 227 230 223 236 220 208 208 153 157 179 179 187 191 190 194 197 185 189 188 184 177 170 166 168 163 148 141 140 128 112 101 103 103
157 200 202 217 208 214 224 221 211 217 218 230 244 248 239 222 190 190 161 165 194 186 193 191 192 190 200 195 187 187 183 182 178 176 172 160 160 157 150 139 130 120 122 119
138 149 162 215 202 219 242 228 219 218 211 217 226 239 193 195 201 202 177 184 195 197 193 193 194 188 194 200 191 188 184 179 184 183 172 166 165 165 161 153 150 147 143 137
125 133 168 176 141 219 254 204 215 216 213 216 226 241 205 217 215 202 194 187 198 201 196 202 195 191 187 192 193 187 180 183 184 183 176 173 172 170 164 164 161 153 155 154
195 120 145 187 211 261 194 179 179 196 224 214 217 230 227 197 172 230 214 199 195 198 195 196 193 194 179 183 188 187 180 185 188 184 179 178 175 176 170 171 165 161 160 163
154 228 210 152 219 233 200 183 211 189 228 207 211 220 202 169 213 238 190 199 200 199 197 187 185 185 181 181 181 182 187 187 192 186 183 181 178 178 181 175 168 166 174 176
170 175 209 209 249 269 244 172 157 198 190 198 201 212 186 194 221 210 160 182 202 190 188 183 176 184 190 171 174 186 189 196 194 186 179 177 180 182 181 171 170 170 176 171
196 181 202 200 224 244 159 154 190 192 186 204 198 187 194 212 218 195 169 175 172 181 179 185 183 187 180 177 177 183 194 197 190 185 180 178 179 182 177 174 175 180 178 184
231 220 222 212 230 85 183 176 215 198 199 193 196 191 203 219 226 222 212 194 194 182 182 183 196 184 182 182 186 185 197 189 185 188 184 180 178 184 180 180 179 182 186 192
233 236 240 221 234 229 200 229 254 218 214 186 201 181 190 206 217 230 217 208 224 194 179 185 194 188 188 188 192 200 181 186 184 188 187 182 182 183 185 189 186 192 191 197
221 204 227 242 248 250 239 224 232 207 182 178 188 199 195 191 202 222 211 200 200 186 174 186 195 199 201 191 195 193 184 181 185 187 187 186 189 188 188 197 193 199 204 202
225 218 222 233 214 232 218 210 203 199 202 193 173 169 180 189 192 181 204 204 210 201 190 196 198 206 202 197 198 196 188 185 180 186 190 190 190 188 195 195 197 227 249 198